Location: Benque
(43.2594°N, 0.9178°E)
Time: 06:32:08
(UTC+00:00)

Cosmos 2341 Rocket - Pass Details

Date: 24 January 2020
Orbit: 967 x 1005 km, 82.9° (Epoch: 17 February)

Event Time Altitude Azimuth Distance (km) Brightness Sun altitude
Rises 17:27:36 0° 173° (S) 3,716 7.2 -6.0°
Reaches altitude 10° 17:30:10 10° 170° (S) 2,768 6.5 -6.4°
Maximum altitude 17:36:23 59° 92° (E) 1,149 4.1 -7.5°
Drops below altitude 10° 17:42:35 10° 15° (NNE) 2,766 6.1 -8.5°
Sets 17:45:08 0° 12° (NNE) 3,714 6.7 -9.0°
